Norwood, MA

3:56 PM EST on February 20, 2017 (GMT -0500)
Norwood Memorial

Weather History for KOWD - June, 2014

Change the Weather History Date:

Tuesday, June 10, 2014

  Actual Average Record
Temperature  
Mean Temperature 70 °F -  
Max Temperature 80 °F 72 °F 97 °F (2008)
Min Temperature 59 °F 50 °F 43 °F (1999)
Cooling Degree Days 4    
Growing Degree Days 20 (Base 50)    
Moisture  
Dew Point 63 °F    
Average Humidity 89    
Maximum Humidity 97    
Minimum Humidity 66    
Precipitation  
Precipitation 0.17 in - - ()
Sea Level Pressure  
Sea Level Pressure 29.98 in    
Wind  
Wind Speed 3 mph (ESE)    
Max Wind Speed 13 mph    
Max Gust Speed 23 mph    
Visibility 8 miles    
Events Rain    
Averages and records for this station are not official NWS values.
T = Trace of Precipitation, MM = Missing Value Source: NWS Daily Summary

Daily Weather History Graph

Daily Weather History Graph

Search for Another Location

Airport or City:

Trip Planner

Search our weather history database for the weather conditions in past years. The results will help you decide how hot, cold, wet, or windy it might be!

Date:

Astronomy

Jun. 10, 2014 Rise Set
Actual Time 5:08 AM EDT 8:20 PM EDT
Civil Twilight 4:33 AM EDT 8:54 PM EDT
Nautical Twilight 3:49 AM EDT 9:39 PM EDT
Astronomical Twilight 2:56 AM EDT 10:32 PM EDT
Moon 5:39 PM EDT (6/10) 3:14 AM EDT (6/10)
Length of Visible Light 16h 20m
Length of Day
15h 12m
Waxing Gibbous, 92% of the Moon is Illuminated
Jun 10
Waxing Gibbous
Jun 13
Full
Jun 19
Last Quarter
Jun 27
New
Jul 5
First Quarter

Hourly Weather History & Observations

Time (EDT) Temp. Dew Point Humidity Pressure Visibility Wind Dir Wind Speed Gust Speed Precip Events Conditions
12:38 AM 63.0 °F 62.1 °F 97% 29.98 in 10.0 mi Calm Calm - 0.05 in Rain Light Rain
12:53 AM 63.0 °F 62.1 °F 97% 29.98 in 9.0 mi SE 3.5 mph - 0.05 in   Overcast
1:05 AM 63.0 °F 62.1 °F 97% 29.98 in 9.0 mi Calm Calm - N/A   Overcast
1:18 AM 63.0 °F 62.1 °F 97% 29.97 in 10.0 mi Calm Calm - N/A   Overcast
1:53 AM 63.0 °F 62.1 °F 97% 29.97 in 9.0 mi Calm Calm - N/A   Overcast
2:41 AM 63.0 °F 62.1 °F 97% 29.97 in 9.0 mi Calm Calm - 0.00 in   Overcast
2:53 AM 63.0 °F 62.1 °F 97% 29.96 in 10.0 mi SSE 3.5 mph - 0.00 in   Overcast
3:53 AM 63.0 °F 62.1 °F 97% 29.96 in 10.0 mi SSE 3.5 mph - N/A   Overcast
4:41 AM 63.0 °F 62.1 °F 97% 29.96 in 9.0 mi Calm Calm - N/A   Overcast
4:53 AM 63.0 °F 62.1 °F 97% 29.96 in 9.0 mi Calm Calm - 0.00 in Rain Light Rain
5:03 AM 63.0 °F 62.1 °F 97% 29.96 in 8.0 mi Calm Calm - 0.00 in Rain Light Rain
5:53 AM 64.0 °F 63.0 °F 96% 29.97 in 7.0 mi Calm Calm - 0.00 in   Overcast
6:33 AM 64.0 °F 63.0 °F 96% 29.96 in 7.0 mi Calm Calm - N/A   Overcast
6:41 AM 64.0 °F 63.0 °F 96% 29.96 in 8.0 mi Calm Calm - N/A   Overcast
6:53 AM 64.9 °F 63.0 °F 93% 29.96 in 7.0 mi Calm Calm - N/A   Overcast
7:30 AM 64.9 °F 64.0 °F 97% 29.96 in 2.5 mi South 3.5 mph - N/A   Overcast
7:53 AM 66.0 °F 64.0 °F 93% 29.96 in 2.5 mi South 4.6 mph - N/A   Overcast
8:03 AM 66.0 °F 64.0 °F 93% 29.96 in 4.0 mi SSE 3.5 mph - N/A   Overcast
8:23 AM 66.9 °F 64.9 °F 93% 29.96 in 5.0 mi South 4.6 mph - N/A   Overcast
8:53 AM 69.1 °F 64.9 °F 87% 29.96 in 7.0 mi Calm Calm - N/A   Overcast
9:49 AM 69.8 °F 66.2 °F 88% 29.95 in 10.0 mi SW 6.9 mph - N/A   Overcast
10:43 AM 70.0 °F 66.0 °F 87% 29.94 in 10.0 mi South 4.6 mph - N/A   Overcast
11:53 AM 73.0 °F 66.9 °F 81% 29.94 in 10.0 mi South 8.1 mph - N/A   Overcast
12:17 PM 72.0 °F 66.0 °F 81% 29.95 in 10.0 mi SW 6.9 mph - N/A   Overcast
1:21 PM 75.0 °F 66.9 °F 76% 29.94 in 10.0 mi Variable 3.5 mph - N/A   Overcast
1:35 PM 75.9 °F 68.0 °F 76% 29.93 in 10.0 mi Variable 6.9 mph - N/A   Mostly Cloudy
1:43 PM 75.9 °F 66.9 °F 74% 29.93 in 10.0 mi SSW 4.6 mph - N/A   Mostly Cloudy
1:53 PM 77.0 °F 66.9 °F 71% 29.94 in 10.0 mi SSW 6.9 mph - N/A   Mostly Cloudy
2:11 PM 79.0 °F 66.9 °F 66% 29.94 in 10.0 mi SW 6.9 mph - N/A   Mostly Cloudy
3:53 PM 79.0 °F 66.9 °F 66% 29.93 in 10.0 mi South 4.6 mph - N/A   Mostly Cloudy
5:42 PM 68.0 °F 64.9 °F 90% 29.98 in 7.0 mi NE 10.4 mph 23.0 mph 0.00 in Rain Light Rain
5:53 PM 66.9 °F 64.0 °F 90% 29.98 in 3.0 mi NE 12.7 mph 20.7 mph 0.03 in Rain Rain
6:02 PM 66.0 °F 64.0 °F 93% 29.99 in 2.5 mi ENE 8.1 mph - 0.03 in Rain Rain
6:11 PM 66.0 °F 64.0 °F 93% 29.99 in 10.0 mi East 5.8 mph - 0.04 in Rain Light Rain
6:53 PM 64.9 °F 62.1 °F 90% 30.02 in 10.0 mi ENE 12.7 mph 20.7 mph 0.09 in   Overcast
7:18 PM 64.0 °F 61.0 °F 90% 30.03 in 10.0 mi ENE 10.4 mph 19.6 mph N/A   Mostly Cloudy
7:34 PM 63.0 °F 61.0 °F 93% 30.04 in 10.0 mi NE 9.2 mph - N/A   Overcast
7:45 PM 63.0 °F 60.1 °F 90% 30.05 in 10.0 mi NE 11.5 mph 20.7 mph N/A   Overcast
7:53 PM 63.0 °F 59.0 °F 87% 30.05 in 10.0 mi NE 10.4 mph 19.6 mph N/A   Overcast
8:10 PM 62.1 °F 59.0 °F 90% 30.06 in 10.0 mi NE 10.4 mph - N/A   Overcast
8:34 PM 61.0 °F 57.9 °F 90% 30.07 in 10.0 mi NE 10.4 mph - N/A   Overcast
8:53 PM 61.0 °F 57.9 °F 90% 30.08 in 10.0 mi NE 10.4 mph - N/A   Overcast
9:53 PM 61.0 °F 57.0 °F 87% 30.09 in 10.0 mi NE 11.5 mph 19.6 mph N/A   Overcast
11:28 PM 60.1 °F 55.9 °F 86% 30.10 in 10.0 mi NE 4.6 mph - N/A   Scattered Clouds
11:53 PM 59.0 °F 55.9 °F 90% 30.10 in 10.0 mi NE 4.6 mph - N/A   Clear